{"data":{"norad_id":58902,"intl_designator":"2024-022D","name":"LEMUR-2-OBA-NI-JESU","alt_names":[],"object_type":"PAYLOAD","status":"ACTIVE","operator":null,"country":"US","launch_date":"2024-01-31","launch_site_code":"RLLB","launch_vehicle":null,"mission":null,"orbit_class":"UNKNOWN","rcs_meters":null,"size_class":null,"mass_kg":null,"dimensions":null,"purposes":["earth_obs"],"wikipedia_slug":null,"has_3d_model":false,"image_url":null,"decayed_at":null,"tle_current":{"epoch":"2026-06-13T06:27:58.466016Z","epoch_age_seconds":8587941,"freshness":"OLD","line1":"1 58902U 24022D   26164.26942669  .07840474  25257-5  90464-3 0  9993","line2":"2 58902  97.3603  29.4721 0009182 248.5343 111.4976 16.36778297132706","mean_motion":16.36778297,"eccentricity":0.0009182,"inclination_deg":97.3603,"raan_deg":29.4721,"arg_perigee_deg":248.5343,"mean_anomaly_deg":111.4976,"bstar":0.00090464,"rev_number":13270,"period_min":87.977706121796,"perigee_km":168.37020784161,"apogee_km":180.40326242881,"semimajor_km":6552.5237351352,"source":"CELESTRAK","updated_at":"2026-06-14T09:00:52.695492Z"}}}